DW8259 Weather Reports


time (UTC)temp
C
wind
direction
speed
KPH
gust
KPH
rain 1hr
cm
rain 24hr
cm
rain mn
cm
humidity
%
barometer
mb
20260504151003 23 183 1.6 12.9 0.00 0.00 0.00 55 1002.1
20260504150503 23 190 1.6 12.9 0.00 0.00 0.00 56 1002.1
20260504141213 20 216 1.6 11.3 0.00 0.00 0.00 61 1002.5
20260504140503 20 205 1.6 12.9 0.00 0.00 0.00 62 1002.6
20260504130503 16 213 1.6 9.7 0.00 0.00 0.00 75 1003.6
20260504110503 7 0 0.0 0.0 0.00 0.00 0.00 91 1004.0
20260504100503 7 0 0.0 0.0 0.00 0.00 0.00 91 1004.6
20260504082003 8 0 0.0 0.0 0.00 0.00 0.00 90 1005.0
20260504081503 8 0 0.0 0.0 0.00 0.00 0.00 90 1005.1
20260504081003 8 0 0.0 0.0 0.00 0.00 0.00 89 1005.0
20260504080503 8 0 0.0 0.0 0.00 0.00 0.00 89 1005.2
20260504060213 10 0 0.0 0.0 0.00 0.00 0.00 83 1006.1
20260504050503 11 0 0.0 0.0 0.00 0.00 0.00 78 1006.7
20260504050010 11 0 0.0 0.0 0.00 0.00 0.00 77 1006.7
20260504045503 11 0 0.0 0.0 0.00 0.00 0.00 77 1006.8
20260504045003 11 0 0.0 0.0 0.00 0.00 0.00 76 1006.8
20260504044504 11 0 0.0 0.0 0.00 0.00 0.00 75 1006.7
20260504044003 11 0 0.0 0.0 0.00 0.00 0.00 75 1006.8
20260504043714 11 0 0.0 0.0 0.00 0.00 0.00 74 1006.8
20260504043003 12 0 0.0 0.0 0.00 0.00 0.00 74 1006.8
20260504042503 12 0 0.0 0.0 0.00 0.00 0.00 73 1006.8
20260504042003 12 0 0.0 0.0 0.00 0.00 0.00 72 1006.9
20260504041503 12 0 0.0 0.0 0.00 0.00 0.00 72 1007.0
20260504041003 12 0 0.0 0.0 0.00 0.00 0.00 71 1007.0
20260504040503 12 0 0.0 0.0 0.00 0.00 0.00 71 1007.0
20260504040004 13 0 0.0 0.0 0.00 0.00 0.00 70 1007.0
20260504035503 13 0 0.0 0.0 0.00 0.00 0.00 70 1007.0
20260504035003 13 0 0.0 0.0 0.00 0.00 0.00 69 1007.0
20260504034503 13 0 0.0 0.0 0.00 0.00 0.00 69 1007.0
20260504034003 13 0 0.0 0.0 0.00 0.00 0.00 68 1007.1
20260504033714 13 0 0.0 0.0 0.00 0.00 0.00 67 1007.1
20260504033004 13 0 0.0 0.0 0.00 0.00 0.00 66 1007.2
20260504032503 14 0 0.0 0.0 0.00 0.00 0.00 65 1007.1
20260504032003 14 0 0.0 0.0 0.00 0.00 0.00 64 1007.2
20260504031503 14 0 0.0 0.0 0.00 0.00 0.00 63 1007.2
20260504031003 15 0 0.0 0.0 0.00 0.00 0.00 62 1007.2
20260504030503 15 0 0.0 0.0 0.00 0.00 0.00 61 1007.2
20260504030003 15 0 0.0 0.0 0.00 0.00 0.00 61 1007.2
20260504025503 15 0 0.0 0.0 0.00 0.00 0.00 60 1007.2
20260504025003 15 207 0.0 6.4 0.00 0.00 0.00 60 1007.2
20260504024503 15 207 0.0 6.4 0.00 0.00 0.00 59 1007.1
20260504024214 15 207 0.0 6.4 0.00 0.00 0.00 59 1007.1
20260504023503 16 0 0.0 0.0 0.00 0.00 0.00 59 1007.1
20260504023003 15 0 0.0 0.0 0.00 0.00 0.00 59 1007.1
20260504022503 15 0 0.0 0.0 0.00 0.00 0.00 59 1007.1
20260504022003 16 0 0.0 0.0 0.00 0.00 0.00 59 1007.0
20260504021713 16 0 0.0 0.0 0.00 0.00 0.00 58 1007.0
20260504021003 16 0 0.0 0.0 0.00 0.00 0.00 57 1007.0
20260504020713 16 0 0.0 0.0 0.00 0.00 0.00 57 1007.0
20260504020003 16 0 0.0 0.0 0.00 0.00 0.00 56 1006.9
20260504015503 16 0 0.0 0.0 0.00 0.00 0.00 55 1007.0
20260504015003 16 0 0.0 0.0 0.00 0.00 0.00 55 1006.9
20260504014503 17 0 0.0 0.0 0.00 0.00 0.00 54 1006.9
20260504014003 17 0 0.0 0.0 0.00 0.00 0.00 54 1006.9
20260504013713 17 0 0.0 0.0 0.00 0.00 0.00 54 1006.9
20260504013214 17 0 0.0 0.0 0.00 0.00 0.00 53 1006.9
20260504012503 17 212 0.0 1.6 0.00 0.00 0.00 53 1006.9
20260504012003 18 212 0.0 1.6 0.00 0.00 0.00 52 1006.9
20260504011503 18 211 0.0 1.6 0.00 0.00 0.00 52 1006.8
20260504011003 18 211 0.0 1.6 0.00 0.00 0.00 51 1006.8
20260504010503 18 0 0.0 0.0 0.00 0.00 0.00 50 1006.7
20260504010003 19 0 0.0 0.0 0.00 0.00 0.00 49 1006.7
20260504005503 19 211 0.0 1.6 0.00 0.00 0.00 49 1006.7
20260504005004 19 211 0.0 1.6 0.00 0.00 0.00 48 1006.6
20260504004503 20 0 0.0 0.0 0.00 0.00 0.00 48 1006.7
20260504004003 20 213 0.0 1.6 0.00 0.00 0.00 47 1006.6
20260504003503 20 213 0.0 1.6 0.00 0.00 0.00 46 1006.6
20260504003003 20 0 0.0 0.0 0.00 0.00 0.00 46 1006.6
20260504002503 20 0 0.0 0.0 0.00 0.00 0.00 46 1006.7
20260504002003 20 230 0.0 8.0 0.00 0.00 0.00 45 1006.6
20260504001503 20 237 0.0 8.0 0.00 0.00 0.00 45 1006.7
20260504001003 20 255 0.0 3.2 0.00 0.00 0.00 45 1006.7
20260504000503 21 196 0.0 1.6 0.00 0.00 0.00 46 1006.7
20260504000003 21 227 0.0 1.6 0.00 0.00 0.00 46 1006.8
20260503235504 21 213 0.0 11.3 0.00 0.00 0.00 46 1006.7
20260503235003 21 211 0.0 11.3 0.00 0.00 0.00 45 1006.8
20260503234503 21 194 0.0 6.4 0.00 0.00 0.00 46 1006.7
20260503234003 21 215 0.0 8.0 0.00 0.00 0.00 45 1006.7
20260503233503 21 236 0.0 8.0 0.00 0.00 0.00 45 1006.7
20260503233213 21 244 0.0 1.6 0.00 0.00 0.00 46 1006.7
20260503232503 21 224 0.0 6.4 0.00 0.00 0.00 47 1006.8
20260503232003 21 195 0.0 11.3 0.00 0.00 0.00 46 1006.8
20260503231503 21 201 0.0 11.3 0.00 0.00 0.00 46 1006.8
20260503231003 21 224 0.0 6.4 0.00 0.00 0.00 46 1006.9
20260503230503 21 0 0.0 0.0 0.00 0.00 0.00 47 1006.9
20260503230003 21 0 0.0 0.0 0.00 0.00 0.00 48 1006.9
20260503225503 21 207 0.0 1.6 0.00 0.00 0.00 46 1006.9
20260503225003 21 207 0.0 1.6 0.00 0.00 0.00 46 1006.9
20260503224503 21 214 0.0 3.2 0.00 0.00 0.00 47 1006.9
20260503224003 21 206 0.0 6.4 0.00 0.00 0.00 45 1007.0
20260503223503 21 206 0.0 6.4 0.00 0.00 0.00 46 1007.0
20260503223213 21 213 0.0 6.4 0.00 0.00 0.00 46 1007.0
20260503222503 21 248 0.0 8.0 0.00 0.00 0.00 46 1007.0
20260503222003 21 235 0.0 4.8 0.00 0.00 0.00 47 1006.9
20260503221503 21 221 0.0 4.8 0.00 0.00 0.00 46 1007.0
20260503221003 21 204 0.0 4.8 0.00 0.00 0.00 47 1007.0
20260503220503 21 246 0.0 1.6 0.00 0.00 0.00 47 1007.1
20260503220003 21 215 0.0 14.5 0.00 0.00 0.00 46 1007.1
20260503215503 21 213 0.0 14.5 0.00 0.00 0.00 46 1007.2
20260503215214 21 216 0.0 8.0 0.00 0.00 0.00 46 1007.2
20260503214503 21 160 0.0 3.2 0.00 0.00 0.00 48 1007.2
20260503214003 21 210 0.0 8.0 0.00 0.00 0.00 49 1007.2
20260503213503 21 239 0.0 9.7 0.00 0.00 0.00 47 1007.3
20260503213003 21 266 0.0 9.7 0.00 0.00 0.00 49 1007.4
20260503212713 21 240 0.0 4.8 0.00 0.00 0.00 50 1007.5
20260503212214 20 346 0.0 9.7 0.00 0.00 0.00 51 1007.5
20260503211713 20 283 0.0 11.3 0.00 0.00 0.00 49 1007.5
20260503211003 20 239 0.0 11.3 0.00 0.00 0.00 50 1007.5
20260503210503 20 219 0.0 9.7 0.00 0.00 0.00 49 1007.6
20260503210003 20 201 1.6 14.5 0.00 0.00 0.00 48 1007.7
20260503205503 21 195 1.6 20.9 0.00 0.00 0.00 48 1007.7
20260503205003 21 214 1.6 20.9 0.00 0.00 0.00 48 1007.7
20260503204503 21 247 1.6 17.7 0.00 0.00 0.00 49 1007.7
20260503204003 20 233 1.6 11.3 0.00 0.00 0.00 48 1007.8
20260503203503 20 231 1.6 11.3 0.00 0.00 0.00 49 1007.8
20260503203003 20 206 1.6 11.3 0.00 0.00 0.00 48 1007.8
20260503202503 20 190 1.6 14.5 0.00 0.00 0.00 48 1008.1
20260503202003 20 234 1.6 14.5 0.00 0.00 0.00 48 1008.0
20260503201503 20 236 1.6 16.1 0.00 0.00 0.00 49 1008.0
20260503201003 20 227 1.6 16.1 0.00 0.00 0.00 47 1008.0
20260503200503 20 229 1.6 16.1 0.00 0.00 0.00 49 1007.8
20260503200003 20 211 1.6 16.1 0.00 0.00 0.00 47 1007.8
20260503195713 21 224 3.2 20.9 0.00 0.00 0.00 47 1007.7
20260503195003 20 242 1.6 20.9 0.00 0.00 0.00 48 1008.0
20260503194503 20 219 1.6 20.9 0.00 0.00 0.00 48 1008.2
20260503194213 20 215 1.6 20.9 0.00 0.00 0.00 49 1008.2
20260503193503 20 221 1.6 17.7 0.00 0.00 0.00 49 1008.4
20260503193003 20 206 1.6 9.7 0.00 0.00 0.00 48 1008.4
20260503192503 20 227 1.6 11.3 0.00 0.00 0.00 47 1008.2
20260503192003 20 232 1.6 19.3 0.00 0.00 0.00 47 1008.3
20260503191503 20 224 1.6 19.3 0.00 0.00 0.00 46 1008.3
20260503191003 20 210 0.0 9.7 0.00 0.00 0.00 47 1008.5
20260503190503 20 216 1.6 12.9 0.00 0.00 0.00 47 1008.5
20260503190003 20 231 1.6 24.1 0.00 0.00 0.00 45 1008.5
20260503185503 20 237 3.2 24.1 0.00 0.00 0.00 46 1008.6
20260503185003 20 230 1.6 24.1 0.00 0.00 0.00 48 1008.6
20260503184503 20 215 3.2 19.3 0.00 0.00 0.00 47 1008.6
20260503184003 20 221 3.2 19.3 0.00 0.00 0.00 45 1008.8
20260503183712 20 221 3.2 17.7 0.00 0.00 0.00 48 1008.9
20260503183003 21 243 3.2 17.7 0.00 0.00 0.00 46 1008.9
20260503182503 20 229 3.2 17.7 0.00 0.00 0.00 46 1008.9
20260503182003 20 218 4.8 19.3 0.00 0.00 0.00 45 1008.8
20260503181504 20 229 4.8 19.3 0.00 0.00 0.00 45 1008.9
20260503181003 20 229 3.2 20.9 0.00 0.00 0.00 45 1009.1
20260503180503 20 229 3.2 29.0 0.00 0.00 0.00 46 1009.0
20260503180004 20 217 3.2 29.0 0.00 0.00 0.00 47 1009.3
20260503175503 20 205 3.2 25.7 0.00 0.00 0.00 46 1009.5
20260503175003 19 221 3.2 16.1 0.00 0.00 0.00 47 1009.6
20260503174714 19 211 4.8 25.7 0.00 0.00 0.00 49 1009.2
20260503174003 19 196 4.8 25.7 0.00 0.00 0.00 46 1009.8
20260503173503 19 193 3.2 20.9 0.00 0.00 0.00 47 1009.6
20260503173003 19 198 1.6 19.3 0.00 0.00 0.00 48 1009.6
20260503172504 18 181 1.6 25.7 0.00 0.00 0.00 51 1009.6
20260503172003 18 187 1.6 25.7 0.00 0.00 0.00 47 1009.8
20260503171503 18 204 1.6 24.1 0.00 0.00 0.00 49 1009.8
20260503171213 18 213 3.2 20.9 0.00 0.00 0.00 50 1009.9
20260503170503 17 216 3.2 20.9 0.00 0.00 0.00 51 1010.0